GFSNW_250_spd_153.txt.gz
Wind_Speed
17 19 21 23 27 31 34 34 39 41 45 50 54 56 61 63 64 69 73 75 75 64 57 50 41 33 26 15 22 39 51 60 66 69 70 68 66 65 63 61 60 60 63 66
18 17 18 20 23 25 27 31 32 34 38 41 45 48 51 54 56 58 61 62 65 67 67 60 50 44 34 27 17 14 30 43 52 59 62 64 65 65 66 66 66 67 68 69
21 23 20 19 21 21 23 25 27 28 30 34 38 40 43 47 45 47 48 52 52 53 55 57 58 55 45 37 29 22 15 14 22 34 44 51 55 58 60 60 61 62 63 67
25 27 24 21 21 21 22 21 22 23 23 25 29 32 35 37 40 40 37 40 43 42 43 43 43 44 46 44 41 37 30 20 11 8 11 16 21 26 29 33 35 37 45 40
27 26 25 25 24 24 23 23 20 21 21 20 21 24 28 30 32 32 33 32 32 33 31 32 33 32 31 30 29 27 25 22 21 17 14 12 7 4 3 2 4 8 12 13
27 26 27 27 26 24 24 23 23 23 20 21 19 19 20 23 25 26 26 26 25 23 24 24 20 22 20 19 16 15 13 11 9 7 6 2 2 4 8 10 12 15 18 19
30 29 28 28 27 25 24 25 25 24 22 21 19 18 18 19 19 20 21 22 22 21 19 19 16 12 11 7 6 4 4 4 4 5 10 11 10 12 17 21 22 23 25 28
36 33 33 31 30 29 26 26 26 26 24 23 20 20 20 20 21 21 21 20 20 19 19 20 20 20 19 13 10 12 15 15 15 18 18 22 24 23 23 26 30 32 34 36
44 42 40 38 35 35 33 32 31 29 28 29 30 27 25 24 23 23 24 25 26 26 25 24 22 21 22 22 23 23 25 26 26 27 29 32 36 35 35 38 39 40 42 43
52 49 46 44 41 40 39 39 39 38 36 35 33 30 30 30 29 28 27 27 27 27 29 30 31 32 31 33 34 34 35 37 38 38 39 41 42 44 46 47 49 50 52 53
57 56 54 52 49 46 45 44 44 44 41 40 38 36 37 34 32 30 29 29 30 35 40 35 36 37 37 37 37 37 38 41 44 46 48 47 50 50 51 54 57 59 60 63
62 62 60 58 55 53 50 48 48 49 48 46 44 45 44 43 40 40 40 40 47 47 48 44 43 40 42 43 43 46 45 49 50 52 55 57 57 59 63 66 66 68 70 72
69 65 64 62 61 60 58 56 56 54 52 51 49 52 49 48 48 49 50 53 53 53 50 50 49 51 51 48 50 54 56 59 54 59 63 66 69 72 74 75 77 80 81 83
75 73 70 69 67 67 66 63 61 60 59 57 58 57 58 57 58 60 61 63 59 57 55 54 58 60 59 57 55 58 68 69 73 72 76 77 80 85 87 88 88 88 90 94
84 79 79 75 74 72 70 67 65 64 62 60 61 62 62 64 65 67 65 64 65 67 64 66 65 64 68 63 61 68 79 77 78 80 84 88 90 94 96 95 96 93 91 93
92 89 84 81 79 77 75 74 73 73 72 67 67 67 66 70 74 74 76 76 75 78 79 75 74 79 77 70 68 78 84 82 86 86 88 89 92 95 97 100 96 96 100 97
99 93 91 89 86 85 83 82 81 81 79 76 72 73 71 75 80 82 84 85 87 88 82 81 85 81 82 82 82 84 84 86 89 89 93 92 90 90 88 91 93 90 88 86
103 104 102 98 94 90 88 89 90 89 86 83 81 80 82 84 88 93 94 92 91 87 83 84 84 83 84 85 89 90 89 90 91 93 89 82 82 82 80 80 79 78 78 78
111 109 105 106 105 95 96 102 101 96 94 90 82 82 85 88 94 98 96 95 92 80 79 80 81 86 93 96 94 94 93 91 88 88 86 82 82 81 80 79 75 74 76 78
112 114 114 111 102 103 106 109 103 103 99 86 82 88 93 98 100 98 94 92 88 85 85 89 88 93 105 99 95 95 98 92 91 90 83 83 82 81 80 77 77 77 76 75
120 117 116 115 112 111 115 117 111 101 93 90 93 94 97 96 101 102 96 93 92 88 85 91 94 105 107 102 101 101 96 90 88 84 81 81 82 80 77 76 79 78 75 73
117 121 120 122 121 119 120 117 108 100 90 85 86 98 105 102 103 100 100 100 98 96 98 99 102 115 109 101 101 102 93 89 84 81 82 83 82 79 77 78 78 76 75 73
121 119 118 117 118 118 112 101 96 92 96 99 103 105 106 105 106 105 106 105 104 106 103 106 116 113 105 100 100 94 90 85 82 82 85 84 82 81 80 79 79 78 76 74
124 124 123 125 119 113 107 105 107 104 103 104 108 109 110 110 112 111 108 108 108 105 109 113 109 103 103 98 93 91 85 81 83 84 85 83 82 82 81 81 81 80 77 77
130 128 126 118 111 108 111 112 107 105 106 104 107 110 110 110 114 113 111 112 109 109 104 104 101 98 97 92 87 83 78 81 85 84 84 83 84 83 83 83 83 82 80 81
130 126 118 115 119 117 115 114 115 113 109 107 106 107 107 107 110 111 111 109 111 112 105 95 92 91 89 84 81 80 78 82 84 84 83 84 84 83 85 87 87 84 82 83
113 105 109 105 99 103 111 112 111 112 114 110 107 107 110 111 112 107 109 111 107 103 97 96 92 88 84 83 80 78 78 81 83 83 85 86 85 85 87 88 89 87 87 87

GFSNW_250_spd_156.txt.gz
Wind_Speed
15 14 16 21 24 26 29 32 35 38 42 46 50 54 58 61 64 69 72 77 72 67 60 52 43 33 21 19 25 34 44 53 59 62 64 64 63 62 60 60 60 59 56 55
15 16 16 21 22 22 24 27 29 32 35 39 42 45 48 52 56 59 62 64 69 71 67 60 53 43 36 20 17 25 33 43 48 53 56 58 59 60 58 56 53 52 51 57
17 17 19 22 19 21 20 23 23 26 28 32 34 37 41 43 46 50 53 53 56 58 60 62 61 54 44 35 27 13 18 23 33 39 44 47 49 50 50 50 52 52 57 62
21 19 20 20 17 17 20 20 22 22 24 25 27 29 32 35 38 40 42 44 45 47 49 48 50 50 50 47 39 29 21 16 22 30 36 41 45 46 48 51 54 57 63 63
27 23 19 18 17 17 18 17 20 22 22 23 22 23 24 26 29 30 33 35 36 38 36 38 37 36 37 38 35 34 30 25 17 12 15 21 26 30 33 34 33 36 37 39
30 27 22 20 18 16 18 19 17 17 19 20 20 19 20 21 22 23 25 26 27 27 28 28 29 24 24 24 24 22 20 16 16 12 11 8 8 9 12 15 17 21 24 27
34 28 25 23 21 19 18 18 19 19 18 18 16 18 18 20 20 20 20 20 20 21 21 20 19 18 16 14 12 9 7 6 7 2 4 7 8 13 17 21 23 27 30 36
36 31 30 27 25 23 22 21 21 21 22 21 22 21 22 20 19 20 20 20 19 18 17 18 20 18 16 14 12 9 9 8 10 11 14 17 19 22 26 30 31 35 40 44
41 38 35 33 31 29 28 27 27 26 25 26 26 26 26 24 21 21 21 21 20 19 17 21 29 30 28 21 22 20 20 20 20 22 24 26 30 32 36 39 41 46 49 51
49 44 43 40 38 36 34 32 31 32 32 30 29 29 29 28 25 25 24 22 21 18 20 26 31 32 33 30 30 29 29 29 32 33 35 39 39 41 43 45 49 54 57 59
56 52 49 45 43 42 41 40 38 38 37 36 33 32 34 34 32 32 31 29 28 28 30 33 35 36 34 32 33 34 38 40 42 43 45 46 48 51 54 57 60 63 67 71
62 60 56 54 50 48 47 46 45 43 42 42 38 37 38 41 39 38 37 35 35 35 35 38 38 36 37 42 45 45 48 49 48 52 56 59 60 63 65 68 71 75 81 86
69 66 63 61 59 56 53 52 51 50 48 45 44 44 45 44 43 43 43 42 43 44 44 46 47 46 45 49 48 50 61 62 61 60 63 65 68 71 72 75 79 84 88 91
74 71 69 67 64 63 59 58 58 56 53 51 51 51 52 50 49 50 50 49 49 49 49 51 54 56 57 58 59 67 76 73 73 69 72 74 76 78 82 86 86 88 90 94
79 78 75 73 72 70 67 65 64 62 61 58 57 56 56 56 56 56 57 56 55 56 57 60 61 63 64 64 69 79 82 79 77 76 78 81 82 83 86 90 95 101 100 98
88 86 83 82 79 78 75 74 72 71 66 64 64 64 63 61 62 63 65 65 64 66 66 67 70 75 75 75 77 85 83 83 81 81 85 87 91 91 90 91 93 98 97 91
91 90 89 91 89 87 87 83 80 78 77 72 67 66 67 68 70 72 72 72 73 74 74 74 74 76 82 83 86 86 87 86 85 86 85 83 86 92 93 97 92 91 91 89
99 98 97 94 92 90 91 91 89 87 83 79 76 71 71 76 77 79 81 79 79 79 79 80 83 82 88 90 91 92 90 83 84 83 86 87 90 94 93 92 95 91 85 83
101 106 103 100 96 91 91 96 93 90 84 81 79 80 82 85 87 88 87 85 85 85 84 86 85 88 93 95 95 94 92 90 88 86 86 87 90 90 90 89 88 85 82 80
110 106 106 105 102 98 101 103 97 88 86 82 79 83 89 92 94 91 91 94 94 90 88 90 89 91 97 99 100 96 94 91 89 90 90 88 87 89 88 86 85 82 80 79
116 109 109 109 108 107 110 110 104 94 87 82 81 82 89 92 93 98 102 102 100 97 94 95 92 93 103 101 98 99 97 95 94 94 95 91 91 92 89 86 85 80 80 78
115 116 115 114 115 116 116 112 102 95 89 87 87 94 98 101 103 105 105 105 105 99 94 92 90 101 107 102 103 102 100 100 97 97 95 94 94 88 87 85 84 83 81 79
126 124 122 118 120 119 113 103 98 97 96 95 101 106 105 103 104 106 107 105 101 98 96 95 99 105 102 101 101 101 101 101 99 95 94 95 90 87 85 85 87 85 82 81
127 130 125 122 120 115 108 102 105 108 104 101 101 104 107 108 106 103 105 104 103 103 99 100 106 105 105 104 102 101 101 98 97 94 91 90 90 89 89 90 89 86 84 84
137 136 135 123 116 117 120 119 114 108 106 107 106 107 111 112 110 106 103 104 102 99 106 112 109 107 108 107 105 102 99 96 92 89 89 89 90 91 92 92 89 86 85 87
142 139 134 126 127 128 124 120 117 116 114 115 114 113 112 111 106 103 103 100 99 109 111 106 106 107 105 105 104 101 97 93 89 88 87 88 90 92 91 91 88 87 87 87
123 115 106 106 109 111 111 107 108 109 111 109 110 108 104 106 104 100 100 101 109 108 108 106 103 104 100 99 96 94 91 89 89 89 90 92 93 90 89 88 88 88 89 88

GFSNW_250_spd_162.txt.gz
Wind_Speed
19 13 10 10 16 21 19 23 27 32 36 40 45 50 56 60 64 67 70 77 75 63 54 48 46 40 31 26 22 22 25 36 48 58 65 72 75 74 70 64 60 59 59 61
22 16 13 10 13 18 17 18 22 26 31 36 39 44 48 52 56 59 62 65 72 76 65 56 49 45 40 34 28 23 23 29 40 50 57 62 66 66 66 63 59 55 55 55
26 20 16 13 13 15 14 16 17 21 25 29 33 38 42 44 48 52 53 56 59 65 68 70 59 51 43 40 34 26 22 22 29 38 45 50 54 57 57 56 53 52 49 47
30 26 21 17 14 13 13 14 15 14 19 24 27 32 35 37 40 44 46 48 51 53 57 61 62 64 53 45 39 32 24 18 19 23 31 37 41 45 47 47 46 46 46 48
33 30 26 21 17 15 15 13 12 12 14 18 23 25 29 31 32 36 38 38 42 45 50 51 52 52 52 54 49 36 31 26 18 15 20 23 29 34 36 39 43 48 49 51
38 35 31 27 23 20 17 15 13 11 11 13 17 20 22 26 27 29 32 32 33 34 37 40 42 43 44 42 41 39 39 33 22 17 14 12 17 24 30 35 39 42 45 49
44 40 36 32 28 24 21 19 17 15 12 11 12 15 17 19 22 24 25 27 27 27 27 29 30 32 32 32 30 28 27 26 23 19 15 11 7 7 15 22 27 32 35 38
50 45 41 39 35 30 26 23 22 18 16 13 11 12 15 16 17 18 19 21 22 21 21 20 21 22 23 24 24 21 17 14 10 10 6 5 6 9 14 19 24 27 31 36
55 51 49 47 43 38 34 28 28 24 21 18 15 14 14 15 16 16 16 17 19 21 20 19 17 18 19 20 20 16 13 9 6 2 4 10 16 19 22 26 32 35 39 44
61 58 55 52 48 44 41 33 32 32 28 24 21 20 18 18 17 17 16 17 18 18 22 18 15 18 19 20 22 21 20 16 17 20 23 26 27 29 30 35 39 45 49 54
67 64 60 57 54 50 46 39 36 35 33 31 29 26 24 23 21 22 21 19 20 21 22 22 21 21 22 23 23 24 25 25 26 29 31 34 36 39 44 49 54 57 60 64
72 70 65 60 56 54 51 47 41 39 37 35 33 33 30 29 28 27 27 24 24 24 24 25 27 29 30 31 32 31 33 31 35 36 40 42 45 46 50 55 58 61 64 68
75 73 68 65 61 57 55 53 47 43 42 41 40 37 36 34 34 34 33 31 31 29 28 30 32 33 34 35 40 44 44 41 40 45 50 49 52 55 56 60 62 65 70 76
80 73 72 68 65 62 59 58 54 49 48 46 46 44 41 41 40 39 39 40 38 36 37 37 38 37 38 39 43 53 50 49 47 54 60 57 62 62 65 67 71 74 78 80
81 76 74 72 70 65 63 62 59 58 56 52 52 52 50 46 47 47 48 48 46 45 45 44 44 47 45 45 50 64 61 57 55 63 62 65 66 65 69 75 79 82 85 89
85 81 78 76 75 73 71 66 63 63 63 61 60 56 54 54 55 55 54 55 55 54 53 51 54 59 56 52 57 74 67 66 65 67 68 70 69 70 76 80 83 87 91 94
91 89 84 83 81 81 78 74 72 70 70 67 65 63 62 62 64 65 65 63 64 63 60 60 61 64 64 63 72 75 70 68 72 72 73 77 80 82 84 88 91 93 95 98
98 95 92 90 89 88 82 80 79 77 74 72 68 67 70 70 71 71 72 72 71 68 68 68 69 64 67 68 77 76 73 71 74 77 80 83 87 91 94 96 97 100 102 103
104 101 99 98 96 95 88 88 84 82 80 76 71 71 73 76 77 76 75 78 77 76 76 75 75 70 73 78 79 80 80 81 81 84 86 88 91 94 95 98 100 104 105 106
108 106 105 104 102 100 96 95 95 89 85 79 75 76 79 79 80 83 85 86 87 85 82 83 77 73 81 82 80 87 87 86 88 90 91 93 95 97 100 102 103 105 107 112
113 111 110 108 108 106 103 102 98 94 91 88 85 84 86 88 88 92 96 96 96 93 87 85 81 80 91 89 88 92 92 94 95 96 96 96 97 99 102 105 109 110 114 118
115 115 115 114 114 110 108 105 102 98 93 91 93 93 91 93 95 98 100 101 100 94 91 89 87 92 94 95 98 98 101 102 101 100 102 103 104 107 109 112 116 118 123 128
121 121 120 117 115 114 112 105 104 103 98 100 100 100 103 101 105 107 108 108 104 101 96 94 94 103 103 102 103 108 108 105 105 107 107 106 107 111 114 119 123 125 132 131
127 125 124 121 115 113 110 109 109 112 114 113 111 109 110 110 109 113 113 114 110 106 100 99 106 109 110 112 113 114 111 110 108 110 109 108 113 118 122 126 129 132 137 129
135 132 126 118 117 117 119 117 116 117 116 116 116 117 119 119 119 116 117 115 111 108 109 112 113 115 117 117 116 116 114 113 115 115 114 119 119 126 129 134 136 138 133 124
135 131 122 117 118 121 122 123 122 120 119 120 124 123 124 122 122 121 119 118 115 117 120 119 117 116 118 118 118 119 116 115 118 121 126 126 129 133 137 134 136 129 123 121
132 125 127 129 127 124 124 121 121 123 124 124 126 128 128 128 129 127 125 120 120 122 122 121 121 122 122 125 123 122 122 124 124 129 130 133 137 138 136 132 123 121 121 114

GFSNW_250_spd_165.txt.gz
Wind_Speed
32 26 21 15 10 9 13 16 19 25 30 36 41 45 50 54 59 63 70 76 76 66 58 51 48 44 38 33 26 20 19 22 29 39 51 62 64 71 76 78 74 69 65 63
37 31 24 19 13 10 10 11 15 19 25 30 36 39 42 48 51 55 60 66 72 77 70 63 56 50 46 41 34 26 24 21 27 38 47 56 60 64 69 72 69 63 58 58
42 35 28 24 16 12 9 9 12 14 18 24 29 34 37 40 45 48 52 56 60 68 71 74 66 58 51 46 41 33 27 23 25 35 44 51 54 56 62 67 63 58 52 50
46 40 34 27 21 15 11 8 10 10 13 17 23 27 32 34 38 42 47 50 53 56 60 63 65 69 61 53 45 38 32 29 24 26 33 39 45 51 57 60 56 50 46 45
50 45 40 32 26 20 16 12 10 8 10 11 16 20 25 28 31 35 39 42 45 48 51 54 56 56 58 61 54 45 36 30 25 23 24 29 33 38 43 46 46 45 45 45
55 50 44 38 31 25 21 17 13 12 8 8 11 14 18 21 25 27 30 34 37 39 40 42 44 46 47 47 48 49 46 38 29 21 17 20 24 29 33 37 40 41 42 43
60 55 50 43 36 31 25 22 19 15 13 9 6 8 12 16 18 21 23 25 29 32 33 32 35 37 38 37 36 36 35 35 35 30 24 17 11 10 14 19 22 27 31 34
65 60 55 48 41 37 31 27 24 20 18 15 11 8 6 9 13 14 16 18 18 22 28 24 26 28 29 30 28 27 25 23 24 20 18 15 10 7 3 2 7 12 19 25
71 65 60 52 48 43 38 33 30 26 23 22 19 14 10 6 8 11 12 13 14 14 17 19 20 21 22 22 21 20 17 15 14 12 11 8 7 9 10 13 15 20 26 32
75 69 64 58 53 48 44 40 36 33 28 27 26 22 18 14 11 8 9 11 12 12 11 11 12 14 15 17 18 18 16 15 14 11 13 15 14 15 17 22 27 32 37 42
80 74 69 63 59 54 51 47 43 39 34 31 30 29 25 22 18 15 13 12 12 13 13 13 12 13 14 16 17 19 17 18 19 20 22 22 24 28 31 33 36 40 45 49
83 78 73 68 64 60 58 54 49 44 40 36 34 33 32 30 27 23 20 18 18 17 17 17 17 17 18 21 21 21 22 23 23 24 27 28 33 36 38 41 43 47 51 55
84 83 77 73 70 65 63 57 54 50 44 40 38 35 35 35 34 32 30 28 25 24 23 23 24 23 25 27 28 29 28 27 29 32 35 36 39 41 44 49 50 55 60 62
84 83 80 78 75 72 66 61 58 55 53 48 44 40 40 39 38 38 36 34 34 32 31 30 32 30 31 32 37 42 39 37 34 40 45 46 47 49 53 56 60 65 67 69
83 84 86 83 79 76 73 68 64 62 61 57 52 48 45 43 43 44 45 43 42 40 38 38 38 40 37 38 44 53 51 44 42 46 52 54 57 59 61 63 66 69 72 76
85 83 85 86 84 80 77 73 71 72 67 63 60 56 52 49 50 51 52 50 48 47 46 46 49 49 45 43 51 65 59 54 53 55 58 59 61 63 66 68 71 74 78 82
93 90 86 86 86 85 84 80 77 76 70 67 64 61 59 59 58 58 57 58 57 55 54 56 56 58 56 54 62 68 64 63 63 65 68 69 68 67 72 74 78 82 85 88
97 94 93 90 87 86 84 84 81 76 74 69 65 62 65 66 66 66 66 65 63 63 63 64 65 63 64 63 70 67 68 69 71 73 75 77 78 79 82 83 86 88 91 95
102 98 97 94 92 90 87 86 84 79 78 75 71 69 70 71 73 72 73 72 72 71 70 71 70 69 72 74 72 72 76 77 80 80 79 82 84 86 90 92 95 96 99 101
108 102 99 98 98 96 96 93 91 83 83 78 75 77 78 81 82 79 78 80 80 78 77 77 74 72 79 78 76 77 81 83 84 84 85 88 91 95 97 97 100 104 106 108
112 109 105 103 101 100 100 99 95 92 90 86 83 85 86 87 88 87 86 85 86 85 83 83 79 80 87 83 83 83 84 86 89 91 93 94 98 101 102 103 106 110 110 112
114 113 110 107 105 106 105 102 100 99 96 92 93 93 91 94 96 96 97 97 96 92 90 89 87 86 89 89 88 89 92 94 95 97 99 101 103 104 106 109 111 112 114 113
119 118 116 112 112 110 107 106 105 103 102 103 100 100 103 102 103 104 105 105 102 99 95 94 92 98 98 98 97 98 98 100 101 104 106 107 106 108 111 112 116 116 116 117
125 122 121 120 117 112 109 109 109 110 112 111 108 106 105 106 106 108 110 111 108 104 101 101 103 103 103 102 104 104 104 107 108 109 110 110 113 115 116 119 118 117 118 125
129 126 127 123 121 119 117 116 115 114 115 116 114 114 113 112 112 112 114 114 110 108 108 108 107 107 109 109 109 113 116 116 114 115 116 117 117 118 120 120 118 125 126 126
132 130 128 129 130 127 126 125 122 119 120 120 120 120 119 117 115 115 117 116 113 112 112 113 112 113 114 117 118 118 120 123 121 120 120 121 120 123 122 124 127 128 127 130
128 131 135 136 135 138 136 131 127 127 127 126 126 125 126 124 125 124 120 119 120 120 120 119 119 117 118 122 123 124 123 123 123 125 126 125 123 124 124 128 129 129 129 123